�N����,����,�g�[���i�����r���O�j���x,�g�[�����x,��g�[���i���ցj���x,����
 2003/07/01, 0:00,26.7,65.8,26.6,23.6
 2003/07/01, 0:15,26.6,67.2,26.5,23.6
 2003/07/01, 0:30,26.5,67.5,26.4,23.7
 2003/07/01, 0:45,26.5,67.5,26.4,23.7
 2003/07/01, 1:00,26.5,67,26.4,23.7
 2003/07/01, 1:15,26.4,67.6,26.3,23.8
 2003/07/01, 1:30,26.3,68.2,26.3,23.8
 2003/07/01, 1:45,26.2,68.5,26.2,23.9
 2003/07/01, 2:00,26.2,68.4,26.2,23.9
 2003/07/01, 2:15,26.1,68.6,26.1,23.2
 2003/07/01, 2:30,26,68.7,26,23.2
 2003/07/01, 2:45,25.9,68.8,26,23.2
 2003/07/01, 3:00,25.9,69.2,25.9,23.3
 2003/07/01, 3:15,25.8,69.5,25.8,23.3
 2003/07/01, 3:30,25.7,70.6,25.8,23.4
 2003/07/01, 3:45,25.7,70.9,25.7,23.4
 2003/07/01, 4:00,25.6,71.6,25.7,23.4
 2003/07/01, 4:15,25.5,71.7,25.6,23.4
 2003/07/01, 4:30,25.5,71.2,25.6,23.5
 2003/07/01, 4:45,25.5,70.6,25.5,23.5
 2003/07/01, 5:00,25.5,70.8,25.5,23.5
 2003/07/01, 5:15,25.5,71.6,25.5,23.5
 2003/07/01, 5:30,25.4,71.6,25.4,23.6
 2003/07/01, 5:45,25.5,71.8,25.5,23.6
 2003/07/01, 6:00,25.5,70.8,25.5,23.6
 2003/07/01, 6:15,25.6,70.6,25.5,23.6
 2003/07/01, 6:30,25.7,71.1,25.5,23.7
 2003/07/01, 6:45,25.7,71.4,25.5,23.6
 2003/07/01, 7:00,25.8,71.4,25.6,23.7
 2003/07/01, 7:15,26,70.9,25.6,23.7
 2003/07/01, 7:30,25.8,70.8,25.7,23.7
 2003/07/01, 7:45,26,71.3,25.7,23.7
 2003/07/01, 8:00,26,71.6,25.7,23.7
 2003/07/01, 8:15,26.2,71.8,25.7,23.8
 2003/07/01, 8:30,26.3,71.3,25.7,23.8
 2003/07/01, 8:45,26.1,72.5,25.8,23.8
 2003/07/01, 9:00,26.1,72.2,25.8,23.8
 2003/07/01, 9:15,26,72.7,25.8,23.8
 2003/07/01, 9:30,26,72.6,25.8,23.9
 2003/07/01, 9:45,26,72.7,25.7,23.9
 2003/07/01,10:00,25.9,73.4,25.7,23.9
 2003/07/01,10:15,25.9,73.6,25.7,23.9
 2003/07/01,10:30,25.9,73.8,25.7,23.9
 2003/07/01,10:45,25.9,74.1,25.6,23.9
 2003/07/01,11:00,25.9,74.2,25.6,23.9
 2003/07/01,11:15,25.9,74.5,25.6,24
 2003/07/01,11:30,25.9,74.6,25.6,24
 2003/07/01,11:45,25.9,74.5,25.6,24
 2003/07/01,12:00,25.9,74.8,25.6,24
 2003/07/01,12:15,25.6,78.2,25.5,24
 2003/07/01,12:30,25.6,78.2,25.4,24
 2003/07/01,12:45,25.5,76.1,25.4,24
 2003/07/01,13:00,25.4,76.8,25.4,24.1
 2003/07/01,13:15,25.4,76,25.3,24.1
 2003/07/01,13:30,25.3,75.7,25.3,24.1
 2003/07/01,13:45,25.1,75.2,25.2,24.1
 2003/07/01,14:00,25.1,78.6,25.2,24.1
 2003/07/01,14:15,25,78,25.2,24.1
 2003/07/01,14:30,25,79.5,25.2,24.2
 2003/07/01,14:45,24.8,76.8,25.1,24.2
 2003/07/01,15:00,24.7,79.5,25.1,24.2
 2003/07/01,15:15,24.7,78.8,25,23.5
 2003/07/01,15:30,24.6,80.2,25,23.5
 2003/07/01,15:45,24.6,81.4,24.9,23.6
 2003/07/01,16:00,24.5,81.8,24.8,23.6
 2003/07/01,16:15,24.5,81.5,24.9,23.6
 2003/07/01,16:30,24.6,80,24.9,23.6
 2003/07/01,16:45,24.6,79.1,24.9,23.7
 2003/07/01,17:00,24.6,78.7,24.8,23.7
 2003/07/01,17:15,24.5,78.2,24.8,23.7
 2003/07/01,17:30,24.5,77.4,24.8,23.7
 2003/07/01,17:45,24.5,77.2,24.7,23.7
 2003/07/01,18:00,24.5,76.3,24.7,23.8
 2003/07/01,18:15,24.5,77.2,24.7,23.8
 2003/07/01,18:30,24.5,77.4,24.6,23.8
 2003/07/01,18:45,24.3,76.2,24.6,23.8
 2003/07/01,19:00,24.3,77.3,24.6,23.8
 2003/07/01,19:15,24.2,75.4,24.5,23.8
 2003/07/01,19:30,24.2,75.3,24.5,23.8
 2003/07/01,19:45,24.2,74.7,24.5,23.8
 2003/07/01,20:00,24.2,76.3,24.5,23.8
 2003/07/01,20:15,24.3,74.4,24.7,23.8
 2003/07/01,20:30,23.5,78.9,24.7,23.8
 2003/07/01,20:45,23.5,77.6,24.7,23.8
 2003/07/01,21:00,23.5,77.1,24.6,23.8
 2003/07/01,21:15,23.7,76.2,24.6,23.8
 2003/07/01,21:30,23.6,77.2,24.7,23.8
 2003/07/01,21:45,24.3,77,24.7,23.8
 2003/07/01,22:00,24.5,76.5,24.7,23.7
 2003/07/01,22:15,24.5,75.5,24.6,23.7
 2003/07/01,22:30,24.5,75.2,24.6,23.1
 2003/07/01,22:45,24.5,74.7,24.5,23.1
 2003/07/01,23:00,24.4,74.6,24.5,23.1
 2003/07/01,23:15,24.4,74.3,24.4,23.1
 2003/07/01,23:30,24.3,74.3,24.4,23.1
 2003/07/01,23:45,24.3,74,24.3,23.1
 2003/07/02, 0:00,24.3,74.1,24.3,23.1
 2003/07/02, 0:15,24.2,74,24.2,23.1
 2003/07/02, 0:30,24.2,74,24.2,23.1
 2003/07/02, 0:45,24.1,73.9,24.1,23.1
 2003/07/02, 1:00,24.1,74,24,23.1
 2003/07/02, 1:15,24,73.8,24,23.1
 2003/07/02, 1:30,24,74,24,23
 2003/07/02, 1:45,23.9,73.9,23.9,23.1
 2003/07/02, 2:00,23.9,74,23.9,23
 2003/07/02, 2:15,23.9,73.8,23.9,23
 2003/07/02, 2:30,23.8,74,23.8,23
 2003/07/02, 2:45,23.8,73.8,23.7,23
 2003/07/02, 3:00,23.7,74,23.7,23
 2003/07/02, 3:15,23.7,73.7,23.7,22.9
 2003/07/02, 3:30,23.6,74,23.7,22.9
 2003/07/02, 3:45,23.6,74,23.6,22.9
 2003/07/02, 4:00,23.6,74,23.6,22.9
 2003/07/02, 4:15,23.5,74,23.5,22.9
 2003/07/02, 4:30,23.5,74.1,23.5,22.9
 2003/07/02, 4:45,23.4,74,23.5,22.9
 2003/07/02, 5:00,23.4,74.1,23.4,22.9
 2003/07/02, 5:15,23.4,74.1,23.4,22.8
 2003/07/02, 5:30,23.3,74.3,23.4,22.8
 2003/07/02, 5:45,23.4,74.8,23.3,22.8
 2003/07/02, 6:00,23.4,75,23.4,22.8
 2003/07/02, 6:15,23.6,74.4,23.4,22.8
 2003/07/02, 6:30,23.6,74.4,23.4,22.8
 2003/07/02, 6:45,23.6,73.8,23.4,22.7
 2003/07/02, 7:00,23.8,73.8,23.4,22.7
 2003/07/02, 7:15,23.9,73.5,23.5,22.3
 2003/07/02, 7:30,24,73.6,23.6,22.3
 2003/07/02, 7:45,24.2,73,23.7,22.3
 2003/07/02, 8:00,24.3,72.9,23.8,22.3
 2003/07/02, 8:15,24.3,72.9,23.8,22.4
 2003/07/02, 8:30,24.4,73,23.9,22.4
 2003/07/02, 8:45,24.6,72.8,24,22.4
 2003/07/02, 9:00,24.6,73.1,24.2,22.4
 2003/07/02, 9:15,24.6,72.9,24.4,22.4
 2003/07/02, 9:30,24.7,72.6,24.4,22.4
 2003/07/02, 9:45,24.8,72.4,24.7,22.4
 2003/07/02,10:00,25,71.8,24.8,22.5
 2003/07/02,10:15,25.3,70.6,24.9,22.5
 2003/07/02,10:30,25.5,70.1,25.1,22.5
 2003/07/02,10:45,25.7,69.2,25.2,22.6
 2003/07/02,11:00,25.8,68.2,25.4,22.6
 2003/07/02,11:15,25.9,67.1,25.3,22.6
 2003/07/02,11:30,26,67.4,25.4,22.7
 2003/07/02,11:45,26.1,66.3,25.5,22.7
 2003/07/02,12:00,26.1,66.7,25.5,22.8
 2003/07/02,12:15,26.2,66.4,25.5,22.8
 2003/07/02,12:30,26.3,66.5,25.6,22.9
 2003/07/02,12:45,26.4,65.9,25.7,22.9
 2003/07/02,13:00,26.5,65.3,25.7,22.9
 2003/07/02,13:15,26.6,65.3,25.8,23
 2003/07/02,13:30,26.6,65.3,25.9,23
 2003/07/02,13:45,26.7,64.8,26.1,23.1
 2003/07/02,14:00,26.8,64.8,26.2,23.2
 2003/07/02,14:15,26.8,64.9,26.1,23.2
 2003/07/02,14:30,27.2,62.7,26.3,23.3
 2003/07/02,14:45,27.3,61.7,26.6,23.3
 2003/07/02,15:00,27.4,59.6,26.6,23.4
 2003/07/02,15:15,27.6,59,26.8,23.5
 2003/07/02,15:30,27.6,57.3,27,23.5
 2003/07/02,15:45,27.6,57.9,27,23.6
 2003/07/02,16:00,27.6,56.8,27.1,23.7
 2003/07/02,16:15,27.6,58.5,27.2,23.7
 2003/07/02,16:30,27.5,60.4,27.4,23.8
 2003/07/02,16:45,27.5,61.5,27.4,23.8
 2003/07/02,17:00,27.6,59.8,27.3,23.9
 2003/07/02,17:15,27.6,58.2,27.1,24
 2003/07/02,17:30,27.6,56.3,27.3,24
 2003/07/02,17:45,27.5,56.5,27.2,24.1
 2003/07/02,18:00,27.4,55.5,27,24.2
 2003/07/02,18:15,27.2,55.8,26.9,24.2
 2003/07/02,18:30,27,56.2,26.7,24.3
 2003/07/02,18:45,26.7,55.9,26.6,24.3
 2003/07/02,19:00,26.5,55.5,26.5,24.4
 2003/07/02,19:15,26.3,54.2,26.4,24.5
 2003/07/02,19:30,26.3,53.6,26.3,24.5
 2003/07/02,19:45,26,54.6,26.2,24.5
 2003/07/02,20:00,25.8,55.7,26.1,24.6
 2003/07/02,20:15,25.8,58.6,25.9,24.7
 2003/07/02,20:30,25.3,63,25.8,24.7
 2003/07/02,20:45,24.7,64.8,25.6,24.7
 2003/07/02,21:00,24.7,66.2,25.6,24.8
 2003/07/02,21:15,24.3,65.9,25.3,24.8
 2003/07/02,21:30,24.8,66.6,25.4,24.8
 2003/07/02,21:45,24.9,66,25.4,24.8
 2003/07/02,22:00,24.9,66.4,25.4,23.2
 2003/07/02,22:15,24.8,66.3,25.3,23.3
 2003/07/02,22:30,24.8,65.8,25.2,23.3
 2003/07/02,22:45,24.7,66.1,25.1,23.3
 2003/07/02,23:00,24.6,66.2,25,23.4
 2003/07/02,23:15,24.4,66.4,24.9,23.4
 2003/07/02,23:30,24.4,66.3,24.7,23.4
 2003/07/02,23:45,24.2,67.5,24.7,23.5
 2003/07/03, 0:00,24.2,66.7,24.6,23.4
 2003/07/03, 0:15,24.1,66.6,24.5,23.5
 2003/07/03, 0:30,24,66.7,24.4,23.5
 2003/07/03, 0:45,23.9,66.6,24.2,23.5
 2003/07/03, 1:00,23.8,66.8,24.1,23.4
 2003/07/03, 1:15,23.7,67.2,24,23.4
 2003/07/03, 1:30,23.8,67.1,24,22.8
 2003/07/03, 1:45,23.8,67.1,24.1,22.8
 2003/07/03, 2:00,23.8,67.4,24.1,22.8
 2003/07/03, 2:15,23.8,67.4,24,22.8
 2003/07/03, 2:30,23.7,67.7,24,22.9
 2003/07/03, 2:45,23.7,67.6,23.9,22.8
 2003/07/03, 3:00,23.7,67.9,23.9,22.8
 2003/07/03, 3:15,23.6,68,23.9,22.8
 2003/07/03, 3:30,23.6,68.1,23.8,22.8
 2003/07/03, 3:45,23.6,68.2,23.8,22.8
 2003/07/03, 4:00,23.5,68.4,23.7,22.8
 2003/07/03, 4:15,23.5,68.3,23.7,22.8
 2003/07/03, 4:30,23.4,68.6,23.6,22.8
 2003/07/03, 4:45,23.4,68.4,23.6,22.8
 2003/07/03, 5:00,23.4,68.8,23.6,22.8
 2003/07/03, 5:15,23.3,69,23.6,22.8
 2003/07/03, 5:30,23.3,69.8,23.6,22.8
 2003/07/03, 5:45,23.3,69.4,23.5,22.8
 2003/07/03, 6:00,23.6,70.5,23.5,22.8
 2003/07/03, 6:15,23.6,69.4,23.5,22.8
 2003/07/03, 6:30,23.7,70,23.5,22.8
 2003/07/03, 6:45,23.8,69.9,23.6,22.8
 2003/07/03, 7:00,23.9,70.9,23.6,22.8
 2003/07/03, 7:15,24,69.9,23.7,22.8
 2003/07/03, 7:30,24.2,70.3,23.8,22.8
 2003/07/03, 7:45,24.3,70.2,23.8,22.8
 2003/07/03, 8:00,24.4,70.4,23.8,22.8
 2003/07/03, 8:15,24.5,69.4,23.9,22.8
 2003/07/03, 8:30,24.5,69.6,23.9,22.8
 2003/07/03, 8:45,24.5,69.6,24,22.8
 2003/07/03, 9:00,24.5,70.1,24,22.8
 2003/07/03, 9:15,24.5,69.5,24,22.9
 2003/07/03, 9:30,24.6,70,24,22.9
 2003/07/03, 9:45,24.6,70,24.1,22.9
 2003/07/03,10:00,24.6,70.2,24.1,22.9
 2003/07/03,10:15,24.6,70.1,24.1,22.9
 2003/07/03,10:30,24.6,70.4,24.1,22.9
 2003/07/03,10:45,24.6,70.3,24.1,22.9
 2003/07/03,11:00,24.6,70.6,24.1,22.9
 2003/07/03,11:15,24.6,70.7,24.2,23
 2003/07/03,11:30,24.6,71,24.2,22.9
 2003/07/03,11:45,24.6,71,24.2,23
 2003/07/03,12:00,24.6,71.3,24.2,23
 2003/07/03,12:15,24.6,71.3,24.2,23
 2003/07/03,12:30,24.6,71.6,24.2,23
 2003/07/03,12:45,24.6,71.5,24.2,23.1
 2003/07/03,13:00,24.6,71.8,24.2,23.1
 2003/07/03,13:15,24.6,71.9,24.2,23.1
 2003/07/03,13:30,24.6,77,24.3,23.1
 2003/07/03,13:45,24.7,77.7,24.2,23.1
 2003/07/03,14:00,24.6,77.3,24.2,23.2
 2003/07/03,14:15,24.7,77.1,24.2,23.2
 2003/07/03,14:30,24.6,78.1,24.4,23.2
 2003/07/03,14:45,24.4,79.6,24.3,22.4
 2003/07/03,15:00,24.4,80.4,24.2,22.4
 2003/07/03,15:15,24.4,81.1,24.2,22.4
 2003/07/03,15:30,24.5,80.5,24.2,22.5
 2003/07/03,15:45,24.5,81.2,24.2,22.5
 2003/07/03,16:00,24.4,81.3,24.2,22.5
 2003/07/03,16:15,24.5,79.4,24.2,22.6
 2003/07/03,16:30,24.6,78.6,24.2,22.6
 2003/07/03,16:45,24.6,77.7,24.2,22.6
 2003/07/03,17:00,24.5,78.1,24.3,22.6
 2003/07/03,17:15,24.4,78.7,24.2,22.7
 2003/07/03,17:30,24.5,77,24.2,22.7
 2003/07/03,17:45,24.5,76.3,24.3,22.7
 2003/07/03,18:00,24.6,78.1,24.3,22.8
 2003/07/03,18:15,24.6,78.3,24.4,22.8
 2003/07/03,18:30,24.7,77.7,24.4,22.8
 2003/07/03,18:45,25,78.7,24.4,22.8
 2003/07/03,19:00,25.3,77.8,24.4,22.9
 2003/07/03,19:15,25.3,77.2,24.5,22.9
 2003/07/03,19:30,25.4,76.7,24.5,22.9
 2003/07/03,19:45,25.4,76.7,24.6,22.9
 2003/07/03,20:00,25.4,77.4,24.7,23
 2003/07/03,20:15,25.5,77.9,24.8,23
 2003/07/03,20:30,25.4,76.8,24.8,23
 2003/07/03,20:45,25.2,77.1,24.8,23.2
 2003/07/03,21:00,25.2,76.6,24.9,22.8
 2003/07/03,21:15,25.2,77,25,22.8
 2003/07/03,21:30,25.3,77.9,25,22.8
 2003/07/03,21:45,25.7,78,25.1,22.9
 2003/07/03,22:00,25.8,77.4,25.2,22.9
 2003/07/03,22:15,25.7,76.9,25.3,22.9
 2003/07/03,22:30,25.5,77.1,25.2,22.6
 2003/07/03,22:45,25.4,76.5,25.2,22.6
 2003/07/03,23:00,25.4,76.8,25,22.4
 2003/07/03,23:15,25.3,76.4,25,22.4
 2003/07/03,23:30,25.2,76.6,25,22.4
 2003/07/03,23:45,25.1,76.3,25,22.4
 2003/07/04, 0:00,25.1,76.6,24.9,22.4
 2003/07/04, 0:15,25,76.3,24.8,22.4
 2003/07/04, 0:30,25,76.6,24.9,22.5
 2003/07/04, 0:45,25,76.9,24.8,22.5
 2003/07/04, 1:00,25,77.1,24.8,22.5
 2003/07/04, 1:15,25,77.1,24.9,22.6
 2003/07/04, 1:30,25,77.3,24.8,22.6
 2003/07/04, 1:45,25,77.4,24.9,22.6
 2003/07/04, 2:00,25,77.4,24.9,22.6
 2003/07/04, 2:15,25,77.3,24.8,22.7
 2003/07/04, 2:30,25,77.4,24.8,22.7
 2003/07/04, 2:45,25,77.3,24.8,22.7
 2003/07/04, 3:00,25,77.3,24.8,22.7
 2003/07/04, 3:15,24.9,77.2,24.8,22.8
 2003/07/04, 3:30,24.9,77.3,24.8,22.8
 2003/07/04, 3:45,24.9,77.1,24.8,22.8
 2003/07/04, 4:00,24.9,77.2,24.8,22.9
 2003/07/04, 4:15,24.9,77.1,24.8,22.9
 2003/07/04, 4:30,24.9,77.1,24.8,22.9
 2003/07/04, 4:45,24.9,77.1,24.8,22.9
 2003/07/04, 5:00,24.9,77,24.8,23
 2003/07/04, 5:15,24.8,77,24.8,23
 2003/07/04, 5:30,24.8,77,24.8,23
 2003/07/04, 5:45,25,77.1,24.8,23.1
 2003/07/04, 6:00,25.1,78.5,24.8,23.1
 2003/07/04, 6:15,25.2,78.3,24.9,23.1
 2003/07/04, 6:30,25.2,78,24.9,23.1
 2003/07/04, 6:45,25.3,77.3,24.9,23.2
 2003/07/04, 7:00,25.5,76.8,25.1,23.2
 2003/07/04, 7:15,25.7,75.9,25.2,23.2
 2003/07/04, 7:30,25.8,75.2,25.2,23.3
 2003/07/04, 7:45,26,75,25.2,23.3
 2003/07/04, 8:00,26,75.1,25.4,23.3
 2003/07/04, 8:15,26.1,74.5,25.5,23.3
 2003/07/04, 8:30,26.2,72.9,25.5,23.4
 2003/07/04, 8:45,26.3,73.3,25.6,23.4
 2003/07/04, 9:00,26.5,72.7,25.8,23.4
 2003/07/04, 9:15,26.6,72.4,26.1,23.5
 2003/07/04, 9:30,26.7,72.3,26.2,23.5
 2003/07/04, 9:45,26.9,71.9,26.3,23.5
 2003/07/04,10:00,27,71.9,26.5,23.6
 2003/07/04,10:15,27.1,70,26.5,23.6
 2003/07/04,10:30,27.4,63.3,26.5,23.6
 2003/07/04,10:45,27.5,62.2,26.6,23.6
 2003/07/04,11:00,27.6,62.9,26.6,23.7
 2003/07/04,11:15,27.7,62.7,26.7,23.7
 2003/07/04,11:30,27.8,60.5,26.8,23.8
 2003/07/04,11:45,27.8,59.3,26.7,23.8
 2003/07/04,12:00,27.7,59.4,26.7,23.9
 2003/07/04,12:15,27.8,58.7,26.7,23.9
 2003/07/04,12:30,27.8,59.3,26.7,24
 2003/07/04,12:45,27.9,59.3,26.7,24
 2003/07/04,13:00,27.9,60.7,26.9,24
 2003/07/04,13:15,28,59.9,27,24.1
 2003/07/04,13:30,27.9,59.7,27,24.1
 2003/07/04,13:45,27.6,61.1,26.7,24.2
 2003/07/04,14:00,27.3,60.5,26.6,24.2
 2003/07/04,14:15,27.3,61.3,26.6,24.3
 2003/07/04,14:30,27.3,61.4,26.6,24.3
 2003/07/04,14:45,27.2,60.2,26.5,24.3
 2003/07/04,15:00,27.1,61.3,26.5,24.4
 2003/07/04,15:15,27,61.5,26.5,24.4
 2003/07/04,15:30,27.1,62.4,26.5,24.5
 2003/07/04,15:45,27.1,63.1,26.5,24.5
 2003/07/04,16:00,27.1,63.1,26.5,24.5
 2003/07/04,16:15,27,63.4,26.4,24.6
 2003/07/04,16:30,27,63.4,26.4,24.6
 2003/07/04,16:45,26.9,63.4,26.4,24.6
 2003/07/04,17:00,26.8,63.7,26.3,24.7
 2003/07/04,17:15,26.8,63.4,26.3,24.7
 2003/07/04,17:30,26.7,63.5,26.2,24.7
 2003/07/04,17:45,26.6,63.1,26.2,24.7
 2003/07/04,18:00,26.6,63.1,26.2,24.8
 2003/07/04,18:15,26.5,62.9,26.1,24.8
 2003/07/04,18:30,26.2,62.7,26.1,24.8
 2003/07/04,18:45,26,63,26,24.8
 2003/07/04,19:00,26,63.8,25.9,24.8
 2003/07/04,19:15,25.7,63.2,25.8,24.8
 2003/07/04,19:30,25.7,63.3,25.7,24.9
 2003/07/04,19:45,25.4,63.5,25.7,24.9
 2003/07/04,20:00,25.3,63,25.6,24.9
 2003/07/04,20:15,25.4,62.8,25.6,24.9
 2003/07/04,20:30,25.3,63.5,25.7,24.9
 2003/07/04,20:45,25.1,63.8,25.6,24.9
 2003/07/04,21:00,25,65.3,25.7,24.9
 2003/07/04,21:15,24.9,65.3,25.4,24.9
 2003/07/04,21:30,25.2,66.2,25.4,24.9
 2003/07/04,21:45,25,66.8,25.4,25
 2003/07/04,22:00,24.9,66.5,25.3,25
 2003/07/04,22:15,24.9,66.6,25.2,24.9
 2003/07/04,22:30,24.8,67,25.1,25
 2003/07/04,22:45,24.7,67.8,25,24.9
 2003/07/04,23:00,24.6,68.1,24.9,24.9
 2003/07/04,23:15,24.6,68.2,24.8,24.9
 2003/07/04,23:30,24.5,68.6,24.8,24.9
 2003/07/04,23:45,24.9,69.2,24.8,24.9
 2003/07/05, 0:00,25,68.3,24.7,24.8
 2003/07/05, 0:15,24.5,69,24.7,24.8
 2003/07/05, 0:30,24.7,69.1,24.6,24.8
 2003/07/05, 0:45,24.7,69.1,24.7,24.8
 2003/07/05, 1:00,24.7,70.2,24.6,24.7
 2003/07/05, 1:15,24.6,69.9,24.6,24.7
 2003/07/05, 1:30,24.6,70.3,24.6,24.7
 2003/07/05, 1:45,24.5,70,24.6,24.7
 2003/07/05, 2:00,24.2,70,24.5,23.4
 2003/07/05, 2:15,24.1,70,24.4,23.4
 2003/07/05, 2:30,24,70.4,24.3,23.4
 2003/07/05, 2:45,23.9,70.6,24.2,23.4
 2003/07/05, 3:00,23.8,71.2,24.1,23.4
 2003/07/05, 3:15,23.8,71.3,24,23.4
 2003/07/05, 3:30,23.7,71.7,23.9,23.4
 2003/07/05, 3:45,23.7,72,23.9,23.4
 2003/07/05, 4:00,23.7,72,23.8,23.4
 2003/07/05, 4:15,23.6,71.9,23.7,23.4
 2003/07/05, 4:30,23.6,72.2,23.7,23.4
 2003/07/05, 4:45,23.6,72.6,23.7,23.3
 2003/07/05, 5:00,23.6,73,23.6,23.3
 2003/07/05, 5:15,23.6,73.1,23.6,23.3
 2003/07/05, 5:30,23.5,73,23.6,23.3
 2003/07/05, 5:45,23.5,73.2,23.5,23.3
 2003/07/05, 6:00,23.5,73.3,23.5,23.3
 2003/07/05, 6:15,23.4,73,23.5,23.3
 2003/07/05, 6:30,23.4,73.2,23.4,23.3
 2003/07/05, 6:45,23.4,73,23.4,23.2
 2003/07/05, 7:00,23.4,73.7,23.4,23.2
 2003/07/05, 7:15,23.5,73.7,23.4,23.2
 2003/07/05, 7:30,23.6,73.7,23.4,23.2
 2003/07/05, 7:45,23.7,73.6,23.4,23.2
 2003/07/05, 8:00,23.8,73.7,23.5,22.7
 2003/07/05, 8:15,23.8,72.9,23.7,22.6
 2003/07/05, 8:30,24.1,73,23.7,22.7
 2003/07/05, 8:45,24,73.3,23.7,22.7
 2003/07/05, 9:00,24,73.3,23.7,22.7
 2003/07/05, 9:15,24.1,73.3,23.8,22.7
 2003/07/05, 9:30,24,73.7,23.7,22.7
 2003/07/05, 9:45,24,74,23.7,22.7
 2003/07/05,10:00,24,73.6,23.7,22.7
 2003/07/05,10:15,24,73.8,23.6,22.7
 2003/07/05,10:30,24.2,73.5,23.7,22.7
 2003/07/05,10:45,24.2,74,23.8,22.7
 2003/07/05,11:00,24.1,74.7,23.7,22.7
 2003/07/05,11:15,24.2,73.9,23.8,22.7
 2003/07/05,11:30,24.3,74.5,23.9,22.8
 2003/07/05,11:45,24.3,74.2,23.9,22.8
 2003/07/05,12:00,24.2,75.3,23.9,22.8
 2003/07/05,12:15,24.5,76.5,23.8,22.8
 2003/07/05,12:30,24.6,78.2,24,22.8
 2003/07/05,12:45,24.9,76.8,24.2,22.8
 2003/07/05,13:00,25,76.4,24.2,22.8
 2003/07/05,13:15,25.2,75.9,24.4,22.8
 2003/07/05,13:30,25.6,74.9,24.4,22.8
 2003/07/05,13:45,25.7,74.8,24.6,22.9
 2003/07/05,14:00,25.7,73.7,24.8,22.9
 2003/07/05,14:15,25.6,73.5,24.8,22.9
 2003/07/05,14:30,25.5,73.3,24.8,22.9
 2003/07/05,14:45,25.6,73.1,24.9,22.9
 2003/07/05,15:00,25.6,72.8,24.9,22.9
 2003/07/05,15:15,25.6,72.8,24.9,22.9
 2003/07/05,15:30,25.6,72.9,25,22.9
 2003/07/05,15:45,25.6,72.6,25,23
 2003/07/05,16:00,25.7,72.5,25.1,23
 2003/07/05,16:15,25.7,72.4,25.3,23
 2003/07/05,16:30,26.2,71.5,25.4,23.1
 2003/07/05,16:45,26.1,73.1,25.4,23.1
 2003/07/05,17:00,26.1,73.7,25.3,23.1
 2003/07/05,17:15,26.1,75.1,25.3,23.1
 2003/07/05,17:30,26.1,76.9,25.3,23.2
 2003/07/05,17:45,26.1,77,25.4,23.2
 2003/07/05,18:00,26.1,77,25.5,23.2
 2003/07/05,18:15,26.2,76.8,25.5,23.2
 2003/07/05,18:30,25.9,77,25.4,23.3
 2003/07/05,18:45,25.8,77.2,25.4,23.3
 2003/07/05,19:00,25.7,78.1,25.4,23.3
 2003/07/05,19:15,25.7,79.3,25.4,23.4
 2003/07/05,19:30,25.8,78.6,25.4,23.4
 2003/07/05,19:45,25.8,78.9,25.4,23.4
 2003/07/05,20:00,25.8,78.5,25.3,23.5
 2003/07/05,20:15,25.6,79.2,25.3,23.5
 2003/07/05,20:30,25.6,79.1,25.3,23.5
 2003/07/05,20:45,25.7,78.8,25.3,23.5
 2003/07/05,21:00,25.7,78.7,25.3,23.6
 2003/07/05,21:15,25.7,80.5,25.4,23.6
 2003/07/05,21:30,25.5,80.4,25.5,23.6
 2003/07/05,21:45,25.6,80.5,25.5,23.7
 2003/07/05,22:00,25.7,79.4,25.4,23.7
 2003/07/05,22:15,25.8,78.4,25.4,23.7
 2003/07/05,22:30,25.7,78.1,25.4,23.7
 2003/07/05,22:45,25.7,77.9,25.5,23.8
 2003/07/05,23:00,25.6,77.6,25.4,23.8
 2003/07/05,23:15,25.6,77.4,25.4,23.8
 2003/07/05,23:30,25.6,77.4,25.3,23.8
 2003/07/05,23:45,25.5,77.1,25.3,23.2
 2003/07/06, 0:00,25.5,77.2,25.3,23.3
 2003/07/06, 0:15,25.5,77,25.3,23.3
 2003/07/06, 0:30,25.3,77.6,25.3,23.3
 2003/07/06, 0:45,25.3,78,25.2,23.4
 2003/07/06, 1:00,25.3,78.1,25.2,23.4
 2003/07/06, 1:15,25.3,78.2,25.1,23.4
 2003/07/06, 1:30,25.2,78.4,25.1,23.4
 2003/07/06, 1:45,25.2,79,25,23.4
 2003/07/06, 2:00,25.1,79.3,25,23.5
 2003/07/06, 2:15,25.1,79.6,25,23.2
 2003/07/06, 2:30,25.1,79.6,25,23.1
 2003/07/06, 2:45,25,79.9,25,23.1
 2003/07/06, 3:00,25,79.8,24.9,23.1
 2003/07/06, 3:15,25,80,24.9,23.1
 2003/07/06, 3:30,25,79.9,24.9,23.1
 2003/07/06, 3:45,25,80.1,24.9,23.2
 2003/07/06, 4:00,24.9,79.8,24.9,23.2
 2003/07/06, 4:15,24.9,80,24.9,23.2
 2003/07/06, 4:30,24.9,80.2,24.9,23.2
 2003/07/06, 4:45,24.9,79.8,24.9,23.3
 2003/07/06, 5:00,24.9,79.5,24.8,23.3
 2003/07/06, 5:15,24.9,79.6,24.8,23.3
 2003/07/06, 5:30,24.9,79.7,24.8,23.3
 2003/07/06, 5:45,24.9,80.1,24.8,23.3
 2003/07/06, 6:00,24.9,79.8,24.8,23.4
 2003/07/06, 6:15,24.9,79.7,24.9,23.4
 2003/07/06, 6:30,24.9,79.4,24.9,23.4
 2003/07/06, 6:45,25,79.4,24.8,23.4
 2003/07/06, 7:00,25,79.3,24.9,23.4
 2003/07/06, 7:15,25,79.1,25,23.5
 2003/07/06, 7:30,25,78.9,25,23
 2003/07/06, 7:45,25.1,78.8,25.1,22.7
 2003/07/06, 8:00,25.1,78.7,25,22.5
 2003/07/06, 8:15,25.1,78.7,25.1,22.5
 2003/07/06, 8:30,25.1,78.6,25.1,22.5
 2003/07/06, 8:45,25.2,78.5,25.1,22.6
 2003/07/06, 9:00,25.2,78.3,25.1,22.6
 2003/07/06, 9:15,25.2,78.2,25.2,22.6
 2003/07/06, 9:30,25.3,78,25.2,22.7
 2003/07/06, 9:45,25.5,78.1,25.2,22.7
 2003/07/06,10:00,25.9,78.6,25.3,22.8
 2003/07/06,10:15,26.1,77.4,25.5,22.8
 2003/07/06,10:30,26.3,76.6,25.6,22.8
 2003/07/06,10:45,26.6,76.6,25.9,22.9
 2003/07/06,11:00,26.8,76,25.9,22.9
 2003/07/06,11:15,26.7,77,26,22.8
 2003/07/06,11:30,26.7,77.3,26,22.8
 2003/07/06,11:45,27.1,77.7,26.1,22.8
 2003/07/06,12:00,27.1,77.7,26.3,22.9
 2003/07/06,12:15,27.4,76.2,26.5,22.9
 2003/07/06,12:30,27.5,75.7,26.5,22.9
 2003/07/06,12:45,27.8,74.5,26.5,23
 2003/07/06,13:00,27.6,77,26.7,23
 2003/07/06,13:15,27.5,77.1,26.8,23.1
 2003/07/06,13:30,27.5,77.8,26.9,23.1
 2003/07/06,13:45,27.4,77.4,27,23.2
 2003/07/06,14:00,27.4,78.2,27.1,23.2
 2003/07/06,14:15,27.4,77.8,27,23.3
 2003/07/06,14:30,27.4,78.1,27,23.3
 2003/07/06,14:45,27.4,77.7,27,23.4
 2003/07/06,15:00,27.4,78,27.2,23.4
 2003/07/06,15:15,27.4,77.6,27.2,23.5
 2003/07/06,15:30,27.4,78,27.2,23.5
 2003/07/06,15:45,27.4,77.5,27.2,23.6
 2003/07/06,16:00,27.4,77.6,27.1,23.6
 2003/07/06,16:15,27.4,77.5,27.1,23.7
 2003/07/06,16:30,27.4,77.7,27.2,23.7
 2003/07/06,16:45,27.4,77.3,27.2,23.8
 2003/07/06,17:00,27.4,76.8,27.2,23.8
 2003/07/06,17:15,27.4,76.3,27.1,23.9
 2003/07/06,17:30,27.3,76.2,27.2,23.9
 2003/07/06,17:45,27.3,75.9,27.2,24
 2003/07/06,18:00,27.3,76,27.3,24
 2003/07/06,18:15,27.3,75.9,27.2,24.1
 2003/07/06,18:30,27.2,76.1,27.1,24.1
 2003/07/06,18:45,27.2,76.1,27,24.2
 2003/07/06,19:00,27.2,77,26.9,24.2
 2003/07/06,19:15,27.1,77,26.9,24.3
 2003/07/06,19:30,27.1,77.4,26.8,24.3
 2003/07/06,19:45,27,77.7,26.8,24.4
 2003/07/06,20:00,26.9,77.6,26.8,24.4
 2003/07/06,20:15,26.9,77.8,26.7,24.4
 2003/07/06,20:30,26.9,76.9,26.7,24.5
 2003/07/06,20:45,27.1,78.4,26.7,24.5
 2003/07/06,21:00,27.2,78.4,26.7,24.6
 2003/07/06,21:15,27.2,78.4,26.6,24.6
 2003/07/06,21:30,27,78,26.7,24.7
 2003/07/06,21:45,27,79.1,26.7,24.7
 2003/07/06,22:00,26.9,78.4,26.8,24.7
 2003/07/06,22:15,26.9,78.6,26.8,24.8
 2003/07/06,22:30,26.8,78.2,26.7,24.8
 2003/07/06,22:45,26.8,78.5,26.7,24.8
 2003/07/06,23:00,26.8,77.7,26.6,24.8
 2003/07/06,23:15,26.7,78.3,26.6,24.8
 2003/07/06,23:30,26.6,77.9,26.6,24.9
 2003/07/06,23:45,26.5,78.1,26.6,24.9
 2003/07/07, 0:00,26.5,77.7,26.5,24.9
 2003/07/07, 0:15,26.5,78.1,26.5,24.9
 2003/07/07, 0:30,26.4,77.7,26.5,25
 2003/07/07, 0:45,26.4,78,26.5,25
 2003/07/07, 1:00,26.3,77.6,26.4,25
 2003/07/07, 1:15,26.3,77.8,26.4,25
 2003/07/07, 1:30,26.2,77.5,26.4,25
 2003/07/07, 1:45,26.2,77.8,26.2,23.3
 2003/07/07, 2:00,26.1,77.6,26.2,23.4
 2003/07/07, 2:15,26.1,77.9,26.2,23.4
 2003/07/07, 2:30,26,77.6,26.2,23.5
 2003/07/07, 2:45,26,77.8,26.1,23.5
 2003/07/07, 3:00,26,77.6,26.1,23.6
 2003/07/07, 3:15,26,77.8,26.1,23.6
 2003/07/07, 3:30,25.9,77.5,26,23.6
 2003/07/07, 3:45,25.9,77.8,26.1,23.7
 2003/07/07, 4:00,25.8,77.5,26,23.7
 2003/07/07, 4:15,25.8,77.8,26,23.7
 2003/07/07, 4:30,25.7,77.6,25.9,23.8
 2003/07/07, 4:45,25.7,77.8,25.9,23.8
 2003/07/07, 5:00,25.7,77.5,25.9,23.8
 2003/07/07, 5:15,25.7,78.2,25.8,23.9
 2003/07/07, 5:30,25.6,78.1,25.9,23.9
 2003/07/07, 5:45,25.3,80.3,25.7,23.9
 2003/07/07, 6:00,25.1,81.4,25.6,23.9
 2003/07/07, 6:15,25,82,25.5,24
 2003/07/07, 6:30,24.9,82,25.4,24
 2003/07/07, 6:45,25,81.4,25.5,24
 2003/07/07, 7:00,25,81.4,25.5,24
 2003/07/07, 7:15,25.1,81.2,25.5,24.1
 2003/07/07, 7:30,25.2,81.1,25.5,24.1
 2003/07/07, 7:45,25.4,80.6,25.5,24.1
 2003/07/07, 8:00,25.5,81.2,25.7,24.1
 2003/07/07, 8:15,25.6,82.1,25.7,24.2
 2003/07/07, 8:30,25.7,81.9,25.6,24.2
 2003/07/07, 8:45,25.7,81.8,25.7,24.2
 2003/07/07, 9:00,25.8,81.6,25.7,24.2
 2003/07/07, 9:15,25.9,82.7,25.7,24.2
 2003/07/07, 9:30,25.9,84.5,25.8,24.3
 2003/07/07, 9:45,26.1,81.3,25.8,24.3
 2003/07/07,10:00,26.1,80.6,25.9,24.3
 2003/07/07,10:15,26.3,80.8,26,24.3
 2003/07/07,10:30,26.7,79.7,26,24.4
 2003/07/07,10:45,26.8,78.5,26.3,24.4
 2003/07/07,11:00,26.9,78.9,26.3,24.4
 2003/07/07,11:15,27,78.2,26.5,24.4
 2003/07/07,11:30,27,78.1,26.5,24.4
 2003/07/07,11:45,27,77.8,26.5,24.5
 2003/07/07,12:00,27.1,77.9,26.7,24.5
 2003/07/07,12:15,27.2,78.6,26.8,24.5